Flag for U.S.A. Weather past 2 weeks in Hudson, Wisconsin, U.S.A.

Now
57 °F

Fog.


Feels Like: 57 °F
Forecast: 52 / 64 °F
Wind: No wind

Location: St. Paul Downtown Holman Field

Current Time: Oct 2, 2014 at 1:36:14 AM

Latest Report: Oct 2, 2014 at 1:00 AM


Visibility: 2 mi

Pressure: 29.82 "Hg

Humidity: 100%

Dew point: 57 °F

Location of HudsonLocation

Historic Weather in Hudson — Graph

°F

Hudson temperature yesterday

Maximum temperature yesterday: 58 °F (at 8:53 PM)
Minimum temperature yesterday: 50 °F (at 6:04 AM)
Average temperature yesterday: 53 °F

Past Weeks' High & Low Weather Summary

 TemperatureHumidityPressure
High82 °F (Sep 27, 1:53 PM)100% (Sep 22, 2:53 AM)30.28 "Hg (Sep 22, 2:53 AM)
Low42 °F (Sep 30, 3:53 AM)39% (Sep 28, 3:53 PM)29.65 "Hg (Sep 19, 10:53 PM)
Average61 °F77%30.04 "Hg
* Reported Sep 16 11:53 PM — Oct 1 11:53 PM, Hudson, Weather by CustomWeather, © 2014

Note: Actual official high and low records may vary slightly from our data, if they occured in-between our weather recording intervals... More about our weather records

Advertising

Hudson weather history for previous 24 hours

 ConditionsComfort  
Time TempWeatherWind HumidityBarometerVisibility
11:53 PM
Oct 1
58 °FFog.No wind97%29.82 "Hg4 mi
10:53 PM58 °FFog.5 mph97%29.83 "Hg5 mi
9:53 PM58 °FFog.No wind93%29.84 "Hg5 mi
8:53 PM58 °FFog.No wind97%29.82 "Hg5 mi
7:53 PM57 °FFog.5 mph96%29.82 "Hg4 mi
6:53 PM57 °FFog.3 mph96%29.81 "Hg3 mi
5:53 PM56 °FFog.7 mph97%29.79 "Hg4 mi
4:53 PM56 °FLow clouds.9 mph93%29.79 "Hg7 mi
3:53 PM55 °FLow clouds.10 mph93%29.78 "Hg10 mi
2:53 PM54 °FLow clouds.12 mph93%29.79 "Hg10 mi
1:53 PM52 °FLight rain. Mostly cloudy.9 mph97%29.81 "Hg10 mi
12:59 PM51 °FRain. Fog.7 mph96%29.83 "Hg2 mi
11:55 AM50 °FRain. Fog.10 mph96%29.83 "Hg3 mi
10:58 AM50 °FHeavy rain. Fog.13 mph96%29.85 "Hg2 mi
10:01 AM50 °FLight rain. Fog.13 mph93%29.85 "Hg4 mi
8:53 AM50 °FLight rain. Fog.13 mph93%29.86 "Hg4 mi
8:02 AM50 °FLight rain. Fog.10 mph93%29.87 "Hg4 mi
7:53 AM50 °FLight rain. Fog.14 mph93%29.87 "Hg4 mi
6:53 AM50 °FOvercast.12 mph86%29.87 "Hg10 mi
6:04 AM50 °FLight rain. Overcast.12 mph89%29.87 "Hg10 mi
5:53 AM51 °FLight rain. Mostly cloudy.15 mph83%29.86 "Hg7 mi
4:53 AM51 °FMostly cloudy.14 mph80%29.85 "Hg10 mi
3:53 AM51 °FPassing clouds.15 mph80%29.87 "Hg10 mi
2:53 AM51 °FMostly cloudy.12 mph80%29.88 "Hg10 mi
1:53 AM51 °FPassing clouds.14 mph80%29.89 "Hg10 mi
Weather by CustomWeather, © 2014

See weather overviewHow to use our weather pages